Temperature
17 17 17 17 16 16 16 16 16 15 15 16 16 15 15 15 15 15 14 14 14 14 14 14 13 13 13 13 13 13 12 12 12 12 12 12 12 12
17 17 17 17 16 16 16 16 16 16 15 15 15 15 15 15 14 14 14 14 14 14 14 13 13 13 13 13 13 12 12 12 12 12 12 11 11 11
17 17 17 17 16 16 16 16 16 16 15 15 15 15 15 14 14 14 14 14 14 13 13 13 13 13 13 12 12 12 12 12 12 11 11 11 11 11
17 17 17 17 17 16 16 16 16 16 15 15 15 15 14 14 14 14 14 14 13 13 13 13 13 12 12 12 12 12 12 11 11 11 11 11 11 11
17 17 17 17 16 16 16 16 16 16 15 15 15 15 14 14 14 14 14 13 13 13 13 13 12 12 12 12 12 11 11 11 11 11 11 11 10 10
17 17 17 16 16 16 16 16 16 16 15 15 15 15 14 14 14 14 13 13 13 13 12 12 12 12 12 12 11 11 11 11 11 11 10 10 10 10
17 17 17 16 16 16 16 16 16 15 15 15 15 15 14 14 14 13 13 13 13 12 12 12 12 12 12 11 11 11 11 11 11 10 10 10 10 10
17 17 16 16 16 16 16 16 16 15 15 15 15 14 14 14 14 13 13 13 12 12 12 12 12 11 11 11 11 11 11 11 10 10 10 10 10 9
16 16 16 16 16 16 16 16 15 15 15 15 14 14 14 14 14 13 13 13 12 12 12 11 11 11 11 11 11 11 10 10 10 10 10 10 9 9
16 16 16 16 16 16 16 16 15 15 15 15 14 14 14 14 14 13 13 12 12 12 11 11 11 11 11 11 11 11 10 10 10 10 10 9 9 9
16 16 16 16 16 16 15 15 15 15 15 14 14 14 14 13 13 13 13 12 12 11 11 11 11 11 11 11 11 11 10 10 10 10 10 9 9 9
16 16 15 15 15 15 15 15 15 15 14 14 14 14 14 13 13 13 12 12 12 11 11 11 11 11 11 11 10 10 10 10 10 10 9 9 9 9
16 15 15 15 15 15 14 14 14 14 14 14 14 13 13 13 13 13 12 12 12 11 11 11 11 11 10 10 10 10 10 10 10 9 9 9 9 9
15 15 15 15 14 14 14 14 14 13 13 13 13 13 13 13 12 12 12 12 12 11 11 11 11 10 10 10 10 10 9 9 9 9 9 9 9 8
15 15 14 14 14 14 13 13 13 13 13 13 13 13 12 12 12 12 12 11 11 11 11 10 10 10 10 10 9 9 9 9 9 9 9 9 9 8
14 14 14 14 14 13 13 13 13 13 12 12 12 12 12 12 12 12 11 11 11 11 10 10 10 10 10 9 9 9 9 9 9 9 9 8 8 8
14 14 14 13 13 13 13 13 12 12 12 12 12 12 12 11 11 11 11 11 10 10 10 10 10 9 9 9 9 9 9 9 9 8 8 8 8 8
14 13 13 13 13 13 13 12 12 12 12 12 12 11 11 11 11 11 10 10 10 10 10 10 9 9 9 9 9 9 9 8 8 8 8 8 8 8
13 13 13 13 12 12 12 12 12 12 12 11 11 11 11 11 10 10 10 10 10 10 10 9 9 9 8 8 9 9 8 8 8 8 8 8 8 8
13 13 12 12 12 12 12 12 12 11 11 11 11 11 10 10 10 10 10 10 10 9 9 9 9 9 9 8 8 8 9 8 8 8 8 8 8 7
12 12 12 12 12 12 12 11 11 11 11 11 11 10 10 10 10 10 9 9 9 9 9 9 9 9 9 8 8 8 8 8 8 8 8 7 7 7
12 12 12 12 11 11 11 11 11 11 11 11 10 10 10 10 10 9 9 9 9 9 9 9 9 9 8 8 8 8 8 8 8 8 8 7 7 7
12 12 12 11 11 11 11 11 11 10 10 10 10 10 10 10 9 9 9 9 9 9 9 9 8 8 8 8 8 8 8 8 8 7 7 7 7 7
Wind_Speed
3 4 3 3 3 4 4 4 3 2 3 2 2 1 2 2 3 4 3 4 4 4 4 4 4 4 5 5 5 5 5 4 4 4 2 2 2 3
3 3 3 3 3 3 4 4 4 4 3 2 2 1 2 2 3 4 4 4 4 4 4 4 4 4 4 4 4 4 5 5 4 4 3 3 3 3
3 4 4 3 3 3 3 4 4 4 4 2 1 1 2 3 3 3 3 4 3 4 4 4 3 3 3 4 4 4 5 5 5 4 5 4 4 3
4 4 4 3 3 3 3 4 4 4 4 4 2 2 2 3 3 3 3 3 3 4 4 4 4 4 4 3 3 4 4 4 4 4 4 4 4 4
5 5 5 4 4 3 4 4 4 4 3 4 2 2 1 2 2 2 2 2 3 3 4 4 3 4 4 3 3 3 2 3 3 4 4 4 4 4
4 5 5 6 6 5 4 5 4 4 4 4 3 2 2 2 2 2 2 2 2 2 3 3 3 3 3 3 3 3 2 2 2 3 3 3 4 4
4 4 5 7 8 6 5 5 5 4 4 4 3 3 3 3 4 3 3 2 2 2 2 2 2 2 2 3 4 4 4 3 3 3 3 3 3 4
5 4 5 5 6 7 8 8 8 7 6 5 4 5 6 5 4 4 4 3 2 3 3 2 3 3 4 4 4 5 5 5 5 4 4 4 4 4
5 4 4 4 4 4 5 6 7 9 9 7 7 7 7 7 7 6 5 5 3 3 4 3 2 3 4 5 6 6 6 6 6 6 6 5 5 5
5 5 5 5 4 4 4 4 4 5 7 7 7 7 6 7 8 7 6 4 2 2 4 3 2 3 3 4 6 8 8 7 7 7 7 7 7 6
4 5 5 5 5 5 4 5 4 4 4 6 6 5 5 7 8 5 5 4 3 3 3 3 2 2 2 3 5 7 8 8 8 8 8 8 8 7
3 4 5 6 5 5 5 5 6 5 3 3 3 3 4 6 9 8 7 6 4 3 4 4 3 2 2 2 2 4 5 7 8 8 8 9 9 7
4 4 4 5 5 6 6 5 6 5 3 4 3 3 3 4 5 7 7 7 6 4 5 6 4 3 3 2 1 2 3 4 5 6 8 9 9 9
5 4 4 4 4 5 4 5 6 4 3 3 3 3 3 4 4 5 7 8 7 6 6 7 4 5 4 3 2 2 2 4 4 4 5 7 8 9
4 5 5 4 4 3 5 5 5 4 4 4 4 4 4 4 3 3 4 5 5 5 6 7 6 5 5 4 3 3 2 3 4 4 4 4 5 5
4 3 2 2 3 3 2 3 3 4 4 5 5 4 3 3 3 3 3 3 3 2 3 6 7 6 5 5 5 4 4 3 3 4 4 4 4 6
2 1 1 1 2 2 2 3 3 3 4 4 4 4 3 3 3 3 3 3 3 3 3 2 4 5 5 4 4 5 5 4 4 4 4 3 4 5
3 2 3 3 4 4 4 4 4 4 5 4 4 4 4 4 3 3 3 4 4 4 4 3 3 2 2 3 6 6 5 5 4 4 4 4 5 5
4 4 4 5 5 5 5 5 5 4 4 4 4 4 4 4 4 4 4 4 5 5 4 4 4 5 5 6 4 8 7 5 4 4 5 5 5 5
4 5 5 5 5 5 5 5 5 4 4 4 4 4 4 4 4 4 4 5 5 5 4 4 5 6 7 6 4 3 8 7 5 5 4 4 4 4
5 5 5 5 5 5 5 5 5 5 4 5 5 5 5 5 5 5 5 6 6 5 5 5 5 7 4 3 3 3 3 7 8 5 5 4 3 3
5 5 5 5 5 5 5 5 5 5 5 5 5 5 5 5 6 6 6 5 5 6 6 4 3 3 4 5 6 5 4 3 5 6 6 6 4 4
6 5 5 6 6 5 5 6 7 6 5 5 5 5 5 5 5 5 6 6 6 6 5 4 3 3 4 5 5 5 5 4 2 2 3 5 8 8
Wind_Direction
214 211 208 207 195 195 188 187 181 213 246 231 217 208 179 156 148 132 130 130 125 113 107 99 90 84 78 72 59 53 51 58 61 63 71 101 139 150
215 212 215 216 203 197 195 199 199 199 226 222 217 202 178 156 140 139 138 135 135 132 125 117 107 100 94 83 71 67 70 74 72 76 81 91 106 121
225 217 226 216 208 205 199 197 196 191 217 236 210 184 177 170 140 137 143 143 148 150 141 128 119 112 107 99 88 79 76 76 76 86 93 95 105 113
230 225 231 218 215 212 205 205 203 198 201 212 203 193 192 180 162 151 143 142 147 146 151 146 141 136 125 112 100 93 84 79 78 90 99 103 107 112
225 224 228 216 226 222 212 210 209 201 193 190 193 181 180 171 156 151 149 146 162 160 157 160 160 159 153 142 132 122 113 105 100 102 108 112 116 116
233 231 229 222 225 220 215 210 200 189 175 176 176 178 183 172 170 181 181 182 186 180 173 174 175 175 175 172 174 167 158 149 139 134 132 128 127 134
245 245 241 233 227 219 216 205 191 187 184 187 190 186 195 190 198 190 192 189 210 203 193 202 199 207 213 211 208 203 200 199 191 180 170 163 157 149
251 257 257 247 233 227 220 209 198 195 197 199 207 210 214 207 195 187 178 180 211 192 188 214 204 221 227 225 219 210 208 209 210 206 200 193 182 174
246 253 258 250 233 229 225 217 215 213 204 199 209 217 211 203 188 190 195 197 206 178 177 217 213 227 235 228 220 217 215 216 217 217 212 206 200 194
249 246 244 250 238 219 217 222 230 229 221 212 215 220 215 200 193 191 188 181 169 172 179 212 214 229 239 234 227 220 218 217 219 219 217 214 211 209
259 252 241 244 239 217 209 221 235 243 227 207 206 210 204 193 182 171 170 179 208 214 189 201 209 218 233 242 236 222 219 217 217 219 220 220 219 217
266 260 247 240 237 216 212 216 228 235 213 198 192 201 201 192 188 192 189 192 195 211 190 189 190 182 221 227 229 219 217 220 219 223 224 224 220 214
256 260 256 236 233 228 221 222 223 213 205 204 211 219 213 204 202 201 199 197 201 216 187 180 187 189 206 222 233 216 206 214 218 228 229 226 220 212
248 251 247 228 231 233 231 227 217 199 200 207 219 227 225 223 215 206 205 210 216 220 194 180 189 193 197 218 241 230 222 222 218 225 227 223 222 222
250 244 241 229 230 237 228 225 216 207 202 214 228 235 233 227 214 202 201 206 217 225 209 198 197 193 201 218 227 228 236 232 217 219 220 219 220 216
249 252 245 229 224 227 234 227 220 215 215 225 234 237 228 214 210 203 202 196 206 227 219 209 207 199 208 217 220 231 231 227 217 214 215 221 221 217
210 222 242 238 231 235 239 237 224 216 224 234 236 235 230 222 220 209 203 198 208 224 225 212 217 217 221 218 226 231 233 237 229 212 205 220 232 226
166 211 232 234 235 237 239 241 233 228 226 223 224 227 229 229 228 214 206 208 217 224 224 214 194 196 223 244 226 232 237 239 235 212 208 223 241 236
186 224 232 233 234 235 236 238 241 236 225 223 225 227 228 228 226 224 219 221 228 231 225 213 206 208 229 254 241 213 224 231 224 216 217 222 238 243
222 232 237 237 236 235 234 234 237 237 231 231 230 229 227 226 227 228 225 225 231 233 230 219 215 216 225 240 249 235 213 218 220 223 225 227 243 256
233 236 240 240 240 237 234 233 232 234 232 230 235 233 230 227 229 229 227 222 225 229 231 235 233 220 216 213 236 246 236 214 211 217 214 217 235 246
238 238 240 240 239 238 235 234 235 235 233 233 236 236 233 230 229 228 225 223 227 230 235 239 213 190 197 211 230 243 249 229 211 212 212 206 214 223
237 239 240 239 238 235 235 235 235 237 234 235 236 233 229 229 230 229 228 228 229 230 228 230 215 200 210 216 226 236 242 238 208 200 231 229 226 229
Height
1540 1540 1540 1541 1541 1541 1542 1542 1542 1541 1540 1540 1541 1540 1540 1540 1540 1540 1540 1540 1539 1539 1538 1537 1537 1536 1536 1535 1534 1534 1533 1532 1532 1533 1533 1533 1533 1534
1537 1538 1538 1538 1539 1539 1539 1539 1539 1539 1538 1538 1538 1538 1538 1538 1538 1538 1538 1538 1538 1537 1537 1536 1536 1535 1534 1534 1533 1532 1531 1531 1531 1531 1531 1531 1532 1532
1534 1535 1535 1536 1536 1536 1536 1536 1536 1536 1535 1535 1536 1536 1536 1536 1536 1536 1536 1536 1536 1536 1535 1535 1535 1534 1533 1533 1532 1531 1530 1530 1529 1529 1530 1530 1530 1530
1531 1532 1532 1532 1532 1533 1533 1533 1533 1533 1533 1532 1533 1533 1533 1534 1534 1534 1534 1534 1534 1534 1534 1533 1533 1533 1532 1532 1531 1530 1529 1529 1528 1528 1528 1529 1529 1529
1528 1528 1529 1529 1529 1529 1529 1529 1530 1530 1530 1530 1529 1530 1530 1531 1531 1531 1531 1532 1532 1532 1532 1532 1532 1531 1531 1530 1530 1529 1529 1528 1527 1527 1527 1527 1527 1527
1525 1525 1525 1525 1526 1526 1526 1526 1526 1526 1527 1527 1526 1527 1527 1528 1528 1528 1528 1529 1530 1530 1530 1530 1530 1530 1529 1529 1528 1528 1527 1527 1526 1526 1526 1526 1525 1525
1522 1522 1522 1522 1522 1522 1522 1522 1522 1523 1523 1523 1523 1523 1524 1524 1524 1525 1525 1526 1526 1527 1527 1527 1527 1528 1528 1527 1527 1527 1526 1526 1525 1525 1525 1524 1524 1524
1519 1519 1519 1519 1518 1518 1518 1519 1519 1519 1519 1519 1519 1519 1520 1520 1521 1521 1522 1522 1523 1524 1524 1525 1525 1525 1525 1525 1525 1525 1524 1524 1524 1524 1523 1523 1523 1523
1516 1516 1515 1515 1515 1514 1514 1514 1515 1515 1515 1516 1515 1515 1516 1516 1517 1518 1518 1519 1519 1520 1521 1521 1522 1522 1523 1522 1523 1523 1522 1522 1522 1522 1521 1521 1521 1521
1512 1512 1512 1511 1511 1510 1510 1510 1510 1510 1511 1511 1511 1512 1512 1513 1513 1514 1514 1515 1516 1517 1518 1518 1518 1519 1519 1519 1520 1520 1520 1520 1520 1520 1519 1519 1519 1519
1508 1508 1508 1507 1507 1507 1506 1505 1505 1506 1506 1507 1507 1508 1508 1509 1510 1510 1510 1511 1511 1513 1514 1514 1514 1515 1516 1516 1516 1517 1517 1517 1517 1517 1517 1517 1517 1517
1504 1504 1504 1503 1503 1502 1502 1501 1501 1501 1501 1502 1502 1503 1504 1504 1505 1506 1506 1507 1507 1508 1509 1510 1510 1511 1511 1512 1513 1513 1513 1513 1514 1514 1514 1514 1514 1514
1499 1499 1499 1499 1499 1498 1498 1497 1496 1497 1497 1497 1497 1498 1499 1500 1501 1501 1502 1503 1503 1504 1505 1506 1506 1507 1507 1507 1508 1509 1509 1509 1510 1510 1510 1510 1510 1510
1494 1494 1494 1494 1494 1494 1493 1493 1493 1493 1492 1492 1493 1493 1494 1495 1496 1497 1498 1499 1499 1500 1501 1502 1502 1503 1503 1503 1504 1504 1505 1505 1505 1506 1506 1506 1506 1506
1490 1490 1490 1489 1489 1489 1489 1489 1489 1489 1489 1489 1489 1490 1491 1492 1493 1493 1494 1495 1495 1496 1497 1497 1497 1498 1499 1499 1499 1500 1501 1501 1501 1501 1502 1501 1501 1501
1485 1485 1485 1485 1484 1484 1485 1485 1485 1486 1485 1485 1486 1486 1487 1488 1488 1489 1489 1490 1490 1491 1492 1493 1493 1494 1494 1494 1495 1495 1496 1496 1497 1497 1497 1497 1497 1497
1481 1480 1480 1480 1480 1480 1480 1481 1481 1481 1482 1482 1482 1482 1483 1484 1484 1485 1485 1485 1486 1486 1487 1489 1489 1490 1490 1490 1490 1491 1491 1492 1492 1493 1493 1492 1493 1493
1477 1476 1476 1476 1476 1476 1476 1476 1476 1477 1477 1478 1478 1478 1479 1479 1480 1480 1481 1481 1481 1482 1482 1484 1484 1485 1485 1485 1486 1486 1487 1487 1487 1488 1488 1488 1488 1489
1472 1471 1471 1471 1472 1472 1472 1472 1472 1472 1473 1473 1474 1474 1475 1475 1476 1476 1477 1477 1477 1477 1478 1479 1480 1480 1480 1479 1480 1482 1482 1482 1482 1482 1483 1483 1483 1484
1467 1467 1467 1467 1467 1467 1467 1467 1467 1468 1468 1469 1469 1470 1470 1470 1471 1471 1472 1472 1472 1473 1473 1474 1474 1474 1474 1475 1476 1476 1477 1477 1477 1477 1478 1478 1479 1480
1462 1462 1462 1462 1462 1462 1462 1463 1463 1463 1463 1463 1464 1464 1465 1465 1465 1466 1466 1467 1467 1468 1468 1468 1469 1470 1471 1471 1471 1471 1472 1473 1473 1473 1474 1474 1474 1474
1457 1457 1457 1457 1457 1457 1457 1458 1458 1457 1458 1458 1458 1459 1460 1460 1460 1461 1461 1461 1462 1463 1463 1464 1465 1466 1466 1466 1465 1466 1467 1468 1468 1469 1469 1470 1470 1469
1452 1452 1452 1452 1452 1452 1452 1452 1452 1452 1452 1453 1453 1454 1454 1455 1455 1455 1456 1456 1457 1458 1458 1459 1460 1461 1461 1461 1461 1462 1463 1464 1464 1464 1465 1465 1466 1467